shijiazhuang , China , ASIA

  • Monday
    March 27

    Sunny  Light rain

    63 °F  43 °F

    South  North

    3~4L    

  • Tuesday
    March 28

    Overcast  Sunny

    59 °F  43 °F

    South  North

        

  • Wednesday
    March 29

    Sunny  Sunny

    68 °F  45 °F

    South  North

        

  • Thursday
    March 30

    Cloudy  Sunny

    64 °F  43 °F

    North  North

       3~4L 

  • Friday
    March 31

    Sunny  Sunny

    66 °F  43 °F

    North  North

    3~4L    

  • Saturday
    April 1

    Sunny  Sunny

    70 °F  45 °F

    North  North

        

  • Sunday
    April 2

    Sunny  Sunny

    72 °F  45 °F

    North  North

        

Date   Weather Temperature Humidity Total_rain Visibility Wind
11:00 Sunny 55°F 35.9% 0mm 12km Northeast  1.7m/s
14:00 Sunny 62°F 37% 0mm 12km Southeast  4.4m/s
17:00 Sunny 60°F 38.3% 0mm 12km Southeast  2.4m/s
20:00 Sunny 54°F 44.7% 0mm 12km Southeast  1.7m/s
23:00 Light rain 50°F 47.8% 0.5mm 8km Northeast  1.6m/s
02:00 Light rain 46°F 66.8% 2.5mm 4km Northeast  1.6m/s
05:00 Moderate rain 43°F 69.4% 4.6mm 4km Northeast  1.4m/s
08:00 Light rain 44°F 63.7% 2.1mm 4km Northeast  1.3m/s
11:00 Overcast 45°F 49.8% 0mm 4km Northwest  1.2m/s
14:00 Overcast 56°F 57.3% 0mm 8km Northwest  1.6m/s
17:00 Overcast 59°F 56.7% 0mm 8km Southwest  2.3m/s
20:00 Overcast 51°F 64.3% 0mm 8km Southwest  1.6m/s
23:00 Sunny 45°F 64.7% 0mm 4km Southwest  1.1m/s
02:00 Sunny 44°F 70.6% 0mm 4km Southwest  0.5m/s
05:00 Sunny 43°F 69.7% 0mm 4km Southwest  0.9m/s
08:00 Sunny 47°F 63.2% 0mm 4km Southwest  1.0m/s
11:00 Sunny 60°F 44.9% 0mm 8km Southwest  1.7m/s
14:00 Sunny 66°F 50.9% 0mm 4km Southwest  3.6m/s
17:00 Sunny 68°F 54.7% 0mm 8km Southeast  2.0m/s
20:00 Sunny 60°F 65.6% 0mm 4km Southwest  1.2m/s
23:00 Sunny 53°F 66.3% 0mm 8km Southwest  0.2m/s
02:00 Sunny 50°F 72.2% 0mm 0.8km Northwest  1.3m/s
05:00 Sunny 47°F 69.1% 0mm 4km Northeast  1.1m/s
08:00 Sunny 45°F 55.6% 0mm 4km Northeast  1.3m/s
11:00 Cloudy 56°F 38.1% 0mm 8km Northeast  2.0m/s
14:00 Cloudy 64°F 43.8% 0mm 8km Northeast  3.6m/s
17:00 Cloudy 60°F 45.8% 0mm 12km Northeast  2.1m/s
20:00 Cloudy 55°F 48.7% 0mm 8km Southeast  0.9m/s
23:00 Sunny 45°F 52.2% 0mm 8km Southwest  0.5m/s
02:00 Sunny 45°F 63.6% 0mm 8km Northwest  1.9m/s
05:00 Sunny 43°F 63.1% 0mm 8km Northwest  0.8m/s
08:00 Sunny 46°F 55.1% 0mm 8km Southwest  1.0m/s
11:00 Sunny 55°F 30.5% 0mm 12km Southeast  1.6m/s
14:00 Sunny 66°F 41.4% 0mm 12km Southeast  2.7m/s
17:00 Sunny 64°F 40.8% 0mm 12km Southeast  3.2m/s
20:00 Sunny 58°F 48.7% 0mm 12km Southeast  0.5m/s
23:00 Sunny 46°F 54.4% 0mm 8km Southwest  1.1m/s
02:00 Sunny 44°F 66.4% 0mm 4km Northwest  1.3m/s
05:00 Sunny 43°F 54.3% 0mm 8km Southwest  0.6m/s
08:00 Sunny 47°F 53.9% 0mm 12km Northwest  1.3m/s
11:00 Sunny 59°F 29.3% 0mm 8km Southwest  1.8m/s
14:00 Sunny 63°F 31.1% 0mm 8km Southwest  2.3m/s
17:00 Sunny 69°F 32.9% 0mm 8km Southeast  2.5m/s
20:00 Sunny 57°F 46.3% 0mm 12km Southwest  1.4m/s
23:00 Sunny 48°F 50.1% 0mm 8km Southwest  0.9m/s
02:00 Sunny 46°F 55.7% 0mm 8km Southwest  1.1m/s
05:00 Sunny 45°F 54.4% 0mm 4km Northwest  1.5m/s
08:00 Sunny 52°F 41.1% 0mm 12km Northwest  2.2m/s
11:00 Sunny 61°F 26.6% 0mm 12km Northeast  2.3m/s
14:00 Sunny 71°F 29.9% 0mm 12km Northwest  3.0m/s
17:00 Sunny 66°F 36.5% 0mm 12km Southeast  2.5m/s
20:00 Sunny 58°F 54.3% 0mm 8km Southeast  1.8m/s
23:00 Sunny 49°F 59.5% 0mm 8km Southeast  1.6m/s
02:00 Sunny 48°F 67.6% 0mm 8km Northwest  0.9m/s
05:00 Sunny 45°F 67.5% 0mm 8km Northeast  1.6m/s